STARLINK-11419, 62883

Orbit data source: Space-Track

STARLINK-11419, 62883 is a payload satellite owned by SpaceX/Seattle (US) in LEO that was launched on Tue, 04 Feb 2025 UTC via an FALCON 9 launch vehicle from the Air Force Eastern Test Range (AFETR). Payload-class satellites include a variety of spacecraft equipped with specific instruments for various scientific and technological missions. These include communications satellites like Starlink; space stations such as the ISS; scientific satellites like the Hubble; Earth observation satellites from companies like Planet Labs, Umbra, and HawkEye 360; GPS; miniature CubeSats for education and research; and military/defense satellites.

Loading next visibility...
Identifier
62883, 2025-024E
Orbit
LEO
Last TLE update
14 hours ago
Origin
Manufacturer
SpaceX/Seattle
Mission
Operational Commercial Communications
Bus & Motor
STARLINK V2M, Unknown motor
Mass
730 kg wet, ~700 kg dry
Launch date (UTC)
2025-02-04 (5 months ago)
Launch vehicle
FALCON 9
Launch site
Air Force Eastern Test Range (AFETR)
Object type
Payload
Rocket body
Debris
Shape & HBR
Box + 2 Pan, 29 m
Radar Cross Section
36.964 m², Large (>1 m²)

Expand to show TLE details & history

TLE from 14 hours ago
0 STARLINK-11419
1 62883U 25024E   25191.41870636  .00130731  00000-0  10053-2 0  9999
2 62883  42.9998 201.7909 0002040 281.5465  78.5174 15.70864477 25362
Epoch: 2025-07-10T10:02Z
TLE epoch observation values (Epoch: 2025-07-10T10:02:56.229Z)
Latitude
0.00001°
Longitude
122.47136°
Altitude
355.923 km
Speed
7.698 km/s
True Right ascension
13h 27m 09s
True Declination
0° 00' 00"
Sunlit
Object was in daylight at epoch
Visualization orbit readout
Latitude
38.6193°
Longitude
177.36332°
Altitude
359.188 km
Speed
7.699 km/s
Apparent Right ascension
20h 31m 41s
Apparent Declination
1° 04' 57"
Sunlit
Object is in full shadow
Visualization observer readout
Local Sidereal Time
12:19:48
Azimuth
66.562° ENE
Elevation
-23.904°
Doppler factor
1
Orbital elements
Apogee altitude
359.781 km
Perigee altitude
357.032 km
Semi-major axis
6,736.544 km
Eccentricity
0.0002
Inclination
42.9998°
RAAN
201.7909°
Arg. of periapsis
281.5465°
True anomaly
Unknown
Mean anomaly
78.5174°
Eccentric anomaly
Unknown
Mean motion
3.92543 °/min
Orbital period
91.71 mins
BSTAR
0.0010053
Loading maneuver chart data...
Loading SW <> Apogee altitude chart data...
Loading historical data...
Loading historical data...
Loading historical data...
Loading historical data...
Loading historical data...
Loading historical data...
Loading historical data...

STARLINK-11419 Visibility forecast

Observer location: undefined°, undefined°

Span
Click to sort rows by Start time (UTC) header in descending order
Start Az.
Max El. time (UTC)
Max El. Az.
Max El.
End time (UTC)
End Az.
4 mins2025-07-11 04:36:37.988Z228.469° WSW2025-07-11 04:37:37.988Z200.26° SSW37.538°2025-07-11 04:40:37.988Z77.788° E
4 mins2025-07-11 06:12:37.988Z288.187° WNW2025-07-11 06:14:37.988Z21.402° NNE34.28°2025-07-11 06:16:37.988Z66.867° ENE
|